Location: Eschertshofen
(49.3064°N, 11.5756°E)
Time: 11:56:12
(UTC+00:00)

Iridium 26 - Pass Details

Date: 01 October 2021
Orbit: 772 x 775 km, 86.4° (Epoch: 15 October)

Event Time Altitude Azimuth Distance (km) Brightness Sun altitude
Exits shadow 20:49:37 30° 319° (NW) 1,362 7.2 -36.2°
Drops below altitude 10° 20:52:51 10° 350° (N) 2,332 8.6 -36.5°
Sets 20:55:23 0° 359° (N) 3,263 9.4 -36.8°
